Cloud_Cover
15 11 17 19 15 15 14 16 18 9 7 4 3 9 2 0 2 0 0 0 2 5 5 2 4 100 90 99 84 100 100 100 42 32 16 26 8 0 5 5 5 5 13 0 2
100 86 33 12 16 20 16 16 17 15 6 5 0 0 0 5 0 0 0 0 0 0 0 1 5 30 100 84 70 100 100 89 21 6 4 24 27 0 0 0 0 0 0 0 0
100 80 100 16 14 15 16 20 18 1 0 2 0 0 0 18 0 0 0 0 0 0 0 0 5 100 100 97 82 100 100 89 16 5 3 0 0 2 0 0 0 0 0 0 0
100 100 100 73 14 18 8 9 0 1 0 0 0 0 0 0 0 0 0 0 0 0 0 0 67 98 100 91 70 100 100 42 0 3 2 15 0 0 0 0 0 0 0 0 0
100 100 100 100 92 14 12 4 0 8 0 0 0 0 0 0 0 0 0 0 0 0 0 0 47 100 100 86 100 100 55 32 4 3 1 2 0 0 0 0 0 0 0 0 0
100 100 100 100 100 82 14 0 1 0 0 0 0 1 3 0 0 0 0 0 0 0 0 0 98 100 79 95 88 100 53 5 4 0 0 2 0 0 0 0 0 0 0 0 0
100 100 100 100 100 92 6 0 0 0 0 0 0 0 0 0 0 0 0 0 0 0 0 5 100 99 85 100 100 97 94 54 35 5 0 1 5 48 0 0 0 0 0 0 0
100 100 100 100 100 73 8 2 0 0 0 0 0 0 0 0 0 0 0 0 0 0 0 3 100 100 100 100 100 100 82 100 85 13 70 5 30 92 4 0 0 0 0 0 0
100 100 100 100 96 5 51 21 0 0 0 0 4 0 0 0 0 0 0 0 0 0 0 30 100 100 100 100 100 99 90 100 99 37 100 16 82 5 8 1 0 0 0 0 0
100 100 91 26 7 30 85 0 0 0 0 0 0 0 0 0 0 0 0 0 0 0 0 64 100 100 100 100 100 100 100 80 80 100 100 92 4 4 1 3 2 0 0 0 0
16 0 0 6 18 83 60 3 0 0 0 0 0 0 0 0 0 0 0 0 0 0 0 55 98 100 100 100 100 100 100 100 100 99 100 38 4 2 0 2 1 5 0 0 4
0 0 3 16 45 64 62 0 0 0 0 0 0 0 0 0 0 0 0 0 0 0 0 97 100 100 100 100 100 96 100 100 100 97 100 80 7 5 2 1 1 1 5 3 0
8 73 48 82 6 10 0 0 0 0 0 0 0 0 0 0 0 0 0 0 0 0 0 100 22 92 100 100 100 100 100 100 100 98 83 97 13 100 98 0 0 0 1 3 0
95 100 100 99 0 13 0 0 0 0 0 0 0 0 0 0 0 0 0 0 0 0 0 1 25 100 100 100 100 100 96 100 100 92 89 100 99 100 44 59 82 3 0 0 0
100 100 100 100 41 3 0 0 0 0 0 0 0 0 0 0 0 0 0 0 0 0 0 0 2 100 100 100 100 100 100 100 100 100 100 100 100 100 100 100 100 100 70 7 25
100 100 100 5 54 7 0 0 0 0 0 0 0 0 0 0 0 0 0 0 0 0 0 0 3 100 100 80 4 69 100 100 100 100 100 100 96 99 100 100 49 39 100 100 100
100 100 100 50 0 0 0 0 0 2 0 0 0 0 0 0 0 0 0 0 0 0 0 0 1 51 92 47 1 5 100 77 13 74 99 89 100 100 100 100 100 100 100 100 100
100 61 22 43 0 0 0 0 0 0 0 2 1 0 0 2 0 0 0 0 0 0 0 0 2 82 100 100 100 4 99 100 100 100 84 100 100 100 100 100 83 100 100 100 100
43 0 12 1 0 0 0 0 0 0 3 11 74 1 0 5 0 0 0 0 0 0 0 0 23 100 100 100 100 100 75 100 100 75 99 93 100 100 100 100 99 67 100 100 100
100 28 0 0 0 0 0 0 0 0 0 22 100 5 0 3 1 0 0 1 0 0 0 0 27 66 100 99 28 100 100 100 100 27 38 9 21 100 100 79 97 80 100 100 100
35 0 0 0 2 0 1 6 0 0 0 0 46 8 1 0 1 0 0 9 5 4 0 0 0 2 17 23 100 100 100 100 100 92 95 100 100 100 100 100 100 100 100 91 100
17 0 0 0 5 5 4 5 0 0 0 0 0 5 2 2 0 5 0 2 5 5 5 0 0 3 19 88 61 95 100 100 100 100 99 6 100 85 86 43 98 39 37 94 33
91 44 2 5 28 70 10 53 3 0 0 0 0 0 5 0 63 78 99 58 5 0 2 5 0 4 20 47 90 86 100 100 100 95 100 20 85 100 14 75 4 8 100 100 100
100 100 84 100 97 99 100 100 88 1 0 0 0 0 4 6 33 75 99 92 24 2 0 6 19 0 0 0 3 5 98 100 96 13 100 85 100 100 5 5 7 79 100 100 95
100 100 100 100 100 100 100 93 100 57 4 0 0 0 0 46 19 100 68 98 87 25 2 19 3 67 15 0 5 5 5 17 99 79 25 93 100 100 42 100 34 100 93 100 100
100 100 100 100 100 100 100 100 100 100 5 0 0 0 0 0 40 49 1 8 100 84 95 5 5 5 100 93 80 16 5 5 41 92 100 100 100 100 100 7 41 20 54 100 100
96 79 100 100 100 98 100 100 100 100 14 5 0 0 0 0 0 100 19 4 38 88 100 5 5 44 96 100 60 5 0 91 20 2 100 100 100 100 100 100 100 100 78 100 100